Location: Unspecified
(0.0000°N, 0.0000°E)
Time: 18:26:38
(UTC+00:00)

Vanguard 3 - Pass Details

Date: 30 September 2023
Orbit: 507 x 3241 km, 33.3° (Epoch: 29 November)

Event Time Altitude Azimuth Distance (km) Brightness Sun altitude
Rises 03:45:03 0° 274° (W) 2,749 - -31.2°
Reaches altitude 10° 03:47:24 10° 257° (WSW) 2,013 - -30.7°
Maximum altitude 03:50:59 22° 204° (SSW) 1,642 - -29.8°
Exits shadow 03:52:28 20° 182° (S) 1,870 9.0 -29.4°
Drops below altitude 10° 03:55:58 10° 154° (SSE) 2,882 10.3 -28.5°
Sets 04:00:10 0° 141° (SE) 4,346 11.5 -27.5°
